Погода в Советской

Россия / Ставропольский край     44°01′38″N   44°02′36″E
темп.,
°C
ветер,
м/с
пор.,
м/с
влажн.,
%
обл.,
%
осадки,
мм/ч
давл.,
гПа
погр.,
м
18 сентября, сб
сб1800:00+12в376743 0.0 1017167
03:00+12вюв377150 0.0 1017160
06:00+13вюв367394 0.0 1016221
09:00+17вюв446242 0.0 1016502
12:00+19вюв555513 0.0 1016726
15:00+22в44495 0.0 10151113
18:00+19всв36585 0.0 1014108
21:00+17в51065100 0.0 1015251
19 сентября, вс
вс1900:00+15вюв511845 0.0 1015339
03:00+14в499213 0.0 1015255
06:00+13в3893100 0.0 1015222
09:00+18вюв567042 0.0 1015650
12:00+23вюв55515 0.0 10141152
15:00+25вюв4544100 0.0 10121522
18:00+22в4754100 0.0 1012137
21:00+20вюв41054100 0.0 1013323
20 сентября, пн
пн2000:00+17в376364 0.0 1013200
03:00+15в227587 0.0 101340
06:00+14всв11795 0.0 101311
09:00+21в115675 0.0 1013399
12:00+25св2241100 0.0 1012923
15:00+26всв3335100 0.0 10121223
18:00+23вюв2243100 0.0 101313
21:00+21ююв224854 0.0 101432
21 сентября, вт
вт2100:00+18сз226610 0.0 101515
03:00+16зсз11745 0.0 101511
06:00+16ююз227715 0.0 101511
09:00+22ююв33515 0.0 1014440
12:00+27юв343671 0.0 10131258
15:00+28вюв4432100 0.0 10111445
18:00+24вюв224299 0.0 101111
21:00+19сз4874100 0.3 1014252
22 сентября, ср
ср2200:00+18сз51083100 0.3 1014392
03:00+16сз4792100 0.8 1016330
06:00+16ссз2494100 2.6 1016319
09:00+15с5784100 4.6 1017515
12:00+15ссз3569100 0.2 1017612
15:00+15ссз2364100 0.3 1017629
18:00+14зюз2276100 0.2 1017233
21:00+13в0187100 2.4 1017168